Wind_Speed
50 51 52 53 53 54 54 53 53 53 54 56 57 58 58 59 60 61 60 60 60 59 58 57 55 54 52 50 48 47 46 45 44 42 42 40 38 36 34 32 31 30 28
52 53 53 54 54 54 54 54 54 54 55 56 58 59 60 61 62 62 62 63 63 62 62 61 59 58 57 55 53 51 50 49 47 45 44 43 42 39 37 35 34 32 31
52 53 53 53 53 53 53 53 53 54 54 56 57 59 60 61 62 63 63 64 65 65 64 64 63 62 60 59 58 56 54 53 51 50 48 46 45 43 40 38 37 35 34
51 51 51 51 50 50 50 51 51 52 52 53 54 56 58 60 61 62 63 64 64 65 65 65 65 64 63 62 61 60 59 57 54 53 51 49 48 45 43 41 40 38 36
49 49 49 48 47 47 48 48 48 49 49 50 52 52 53 55 57 59 61 62 62 63 64 65 66 66 65 64 64 63 62 60 58 55 53 52 50 48 46 44 42 40 38
48 47 46 45 44 43 43 43 44 44 45 46 47 48 49 50 52 54 57 59 60 60 61 62 64 65 65 65 64 64 63 62 61 59 56 54 52 51 49 47 45 42 40
46 45 43 42 41 40 39 38 38 39 39 40 40 42 44 46 47 49 51 53 54 56 57 58 58 60 62 63 63 64 63 62 61 60 58 55 54 52 51 49 47 44 42
45 43 41 39 38 36 35 34 34 34 34 34 34 35 37 39 41 43 44 45 46 48 49 51 52 53 56 58 59 60 61 62 61 60 58 56 55 54 52 50 48 46 44
43 40 39 37 34 32 30 30 28 28 28 28 29 30 32 33 35 37 38 39 40 41 43 45 46 47 49 52 54 55 57 58 59 59 59 57 56 54 52 51 49 47 44
42 39 37 35 32 30 27 24 22 21 22 23 24 26 28 29 31 33 34 35 36 37 37 38 40 42 44 46 48 50 51 54 56 58 58 57 56 55 53 51 49 47 44
41 38 35 32 30 27 23 20 18 17 17 18 19 21 23 25 28 30 30 31 32 33 34 35 36 36 37 39 42 45 47 48 50 53 55 56 55 54 53 52 49 47 45
40 36 33 31 28 24 20 16 14 13 13 14 16 17 20 22 25 27 28 29 29 30 32 33 33 34 34 35 37 40 43 45 46 49 51 52 53 53 52 52 50 47 45
39 35 31 29 25 21 17 13 10 9 9 10 12 14 16 18 20 23 25 26 27 28 30 31 31 31 32 33 34 36 40 42 44 45 47 49 50 51 51 51 50 47 45
39 34 30 26 23 20 16 12 9 6 4 5 7 10 12 14 16 18 21 23 24 26 27 28 29 30 31 32 34 35 37 40 42 43 45 47 48 49 50 50 48 47 45
38 34 30 26 22 19 15 12 9 5 2 1 3 6 10 12 13 15 16 18 20 22 25 27 28 29 29 30 31 32 35 38 40 40 43 45 46 46 48 48 47 46 44
37 33 30 26 23 19 16 13 10 8 5 3 3 4 6 8 10 11 13 14 16 18 21 23 25 26 28 28 29 30 33 36 38 40 42 43 44 44 45 46 46 45 43
36 33 30 26 23 21 18 15 13 11 9 7 5 4 4 6 7 8 9 11 12 14 16 17 19 21 24 25 26 29 32 35 37 39 40 41 42 42 42 43 44 43 41
36 33 30 26 23 21 19 17 14 12 10 8 7 5 4 5 5 5 5 6 8 9 11 13 14 15 18 21 23 26 30 34 35 36 37 39 40 40 40 40 41 40 39
35 33 31 28 23 21 20 18 16 14 13 11 9 8 7 6 5 4 3 4 5 6 8 10 11 13 15 18 21 24 28 32 34 34 35 36 37 38 38 38 39 38 37
34 32 30 28 26 23 21 20 18 17 15 14 12 12 11 9 8 7 5 5 4 5 6 8 10 12 13 16 19 23 27 30 32 33 33 34 35 35 36 36 35 34 33
32 31 29 28 26 24 23 22 20 18 17 16 15 13 12 11 10 9 8 7 7 8 9 10 11 11 13 17 20 23 25 27 30 30 30 31 33 33 33 33 32 32 31
31 29 28 27 25 24 23 23 21 20 18 17 16 15 14 13 12 12 12 11 11 10 10 10 12 13 16 19 22 23 24 25 27 28 28 28 28 29 29 29 29 28 28
30 29 28 26 25 24 23 22 20 19 19 18 17 16 16 16 15 14 13 13 12 13 13 14 14 15 16 19 21 24 24 25 25 25 27 28 27 27 27 27 26 26 25
29 28 27 26 25 23 22 21 20 19 19 18 18 18 17 17 16 16 16 15 15 15 16 17 17 18 20 20 21 22 24 25 25 25 26 26 26 25 25 24 24 23 23
26 26 25 24 24 23 22 21 21 20 20 19 19 18 18 18 18 18 18 18 18 18 19 19 19 20 22 22 22 23 24 24 24 24 24 24 24 23 22 21 20 19 19
23 23 23 22 21 21 21 21 20 20 20 20 20 20 20 20 20 19 19 20 20 20 21 22 22 22 22 22 22 23 23 22 21 22 22 21 20 20 19 19 18 17 16
Wind_Direction
295 293 290 287 284 280 276 273 269 266 263 260 258 255 253 251 249 248 247 246 244 243 242 242 241 240 239 238 238 238 238 238 239 239 239 239 238 238 238 238 240 240 241
299 296 293 289 285 282 278 274 270 267 264 261 258 256 254 252 249 247 246 245 244 243 242 241 241 240 240 239 239 239 238 238 238 238 239 239 238 238 237 237 239 240 240
302 299 296 292 288 284 280 276 272 269 265 262 259 257 255 253 251 248 246 245 244 243 242 241 241 240 240 239 238 238 238 238 238 238 237 238 238 238 237 237 238 239 240
305 302 299 295 290 286 281 277 273 269 266 262 260 258 255 252 250 248 246 244 243 242 241 241 240 240 240 239 238 238 238 238 238 237 237 237 237 238 238 237 237 238 239
309 306 302 298 293 288 283 279 274 270 267 263 260 258 254 251 248 247 245 243 242 242 241 241 240 239 239 239 239 238 238 237 237 237 236 236 237 237 238 238 237 237 238
313 311 307 303 298 293 286 281 275 271 267 264 260 256 253 250 247 245 244 243 241 241 240 240 240 239 239 239 239 238 238 237 237 237 236 236 236 237 238 238 237 237 238
318 316 313 309 304 297 291 285 277 271 267 262 257 254 251 248 246 244 242 241 240 239 239 239 239 239 239 238 238 237 237 237 237 237 236 235 235 235 236 237 237 237 237
322 320 317 314 309 302 296 289 280 271 265 258 254 251 248 245 242 240 240 239 237 237 237 236 237 238 238 238 237 237 236 236 236 236 236 234 234 233 234 235 235 236 236
327 325 322 319 315 309 302 294 284 272 262 256 250 247 244 242 239 237 236 235 233 233 234 234 235 236 237 237 236 235 235 235 234 234 233 233 232 232 233 233 234 235 236
332 330 327 325 321 314 307 298 286 276 263 254 248 245 242 238 235 233 232 230 230 229 230 232 233 235 236 236 235 234 234 233 233 232 232 231 230 230 230 231 232 232 233
336 334 333 331 328 323 315 303 291 278 265 253 248 242 237 235 233 231 229 227 226 227 228 230 231 232 233 233 233 232 231 231 231 230 229 229 228 228 228 228 229 230 231
342 339 338 336 334 330 324 314 301 283 267 253 246 240 235 232 230 228 226 225 225 225 226 228 230 230 230 231 232 231 230 229 229 228 227 226 225 225 225 225 226 227 229
348 346 345 344 343 340 336 329 318 301 277 252 241 235 230 225 225 225 225 225 225 226 226 228 230 230 230 231 231 231 229 227 225 225 224 222 222 222 221 221 222 224 226
355 354 355 355 355 354 353 348 340 326 298 251 229 222 219 215 218 222 222 223 224 225 227 229 231 232 232 233 232 230 228 224 222 221 220 219 218 219 219 219 219 221 223
1 2 4 5 5 6 8 9 11 14 11 210 197 200 204 207 211 212 215 220 224 227 229 230 231 232 233 231 230 229 225 221 218 217 216 215 214 215 215 215 217 219 221
5 8 11 14 16 18 20 23 29 36 47 80 131 165 187 200 207 210 217 222 227 230 231 230 229 230 230 230 228 226 221 216 212 210 209 210 210 210 211 213 214 216 218
10 13 15 19 23 27 31 35 40 47 59 74 94 120 156 178 190 203 214 220 223 225 225 225 227 229 228 226 223 219 213 209 205 204 205 206 206 206 208 211 211 213 216
14 17 19 22 27 32 36 41 46 52 58 65 80 92 116 144 168 186 196 204 211 216 218 219 219 220 216 213 212 208 204 199 197 197 199 201 202 204 207 208 209 209 212
17 21 24 27 30 35 39 43 49 53 58 65 74 79 89 100 112 131 158 182 196 199 202 205 205 203 201 200 198 195 194 192 190 191 195 198 200 201 204 205 206 207 211
20 24 28 32 36 39 42 46 50 55 60 65 71 75 78 81 86 94 109 127 140 151 160 167 173 178 181 183 183 183 183 184 184 186 189 193 195 197 201 202 204 206 209
23 27 30 34 39 43 46 49 53 57 61 65 68 72 77 79 78 79 87 94 103 118 131 145 153 161 165 169 170 172 172 174 176 180 185 189 191 194 198 201 204 204 207
24 28 31 35 41 45 47 49 53 58 62 65 67 68 72 76 77 75 79 87 95 104 114 130 141 147 155 155 159 163 164 164 168 172 177 182 184 187 190 193 196 200 203
26 29 32 37 41 45 49 52 54 58 62 65 67 70 73 77 79 80 83 90 96 105 112 117 125 135 144 148 152 154 157 161 166 170 173 176 178 180 184 188 194 198 201
27 30 34 38 42 46 50 53 57 60 62 65 69 71 72 74 80 85 89 93 98 105 110 114 122 130 135 138 141 145 150 155 158 162 165 167 171 176 180 185 190 195 200
27 30 34 39 44 48 52 56 60 63 65 66 68 70 74 78 81 85 90 94 97 101 108 113 117 121 124 126 129 132 137 142 147 153 158 160 165 171 178 183 188 194 200
26 30 33 39 44 49 53 57 61 64 66 68 72 75 79 81 82 86 92 95 98 102 105 107 108 113 119 122 125 127 133 138 144 149 153 156 161 167 174 181 187 193 199
Height
5714 5709 5704 5699 5695 5692 5690 5689 5688 5688 5688 5688 5689 5691 5693 5696 5700 5704 5707 5712 5717 5722 5726 5731 5736 5741 5746 5751 5755 5760 5765 5769 5773 5777 5780 5785 5789 5793 5796 5799 5802 5804 5807
5696 5690 5685 5680 5675 5672 5669 5668 5668 5667 5667 5668 5669 5671 5673 5677 5680 5684 5689 5693 5698 5704 5709 5715 5720 5726 5731 5737 5742 5747 5752 5757 5762 5766 5770 5774 5779 5783 5787 5791 5794 5797 5800
5679 5672 5666 5660 5655 5651 5649 5647 5646 5646 5646 5647 5648 5651 5653 5656 5660 5664 5669 5674 5679 5685 5691 5697 5703 5709 5715 5721 5727 5733 5739 5744 5750 5755 5759 5764 5769 5773 5778 5782 5786 5789 5792
5663 5655 5648 5641 5635 5631 5628 5626 5625 5625 5625 5626 5628 5630 5632 5635 5639 5644 5649 5654 5660 5666 5672 5679 5685 5692 5699 5705 5711 5718 5724 5730 5736 5742 5748 5753 5758 5763 5768 5773 5777 5781 5784
5647 5639 5630 5623 5616 5611 5608 5605 5604 5604 5605 5606 5608 5610 5612 5615 5620 5624 5629 5635 5641 5647 5654 5660 5667 5674 5681 5689 5695 5702 5709 5716 5722 5729 5735 5742 5747 5752 5758 5762 5767 5771 5775
5632 5623 5614 5606 5600 5594 5590 5587 5586 5585 5585 5586 5588 5591 5594 5597 5601 5606 5611 5617 5623 5630 5636 5642 5649 5657 5664 5672 5679 5686 5694 5701 5708 5715 5723 5729 5736 5741 5747 5752 5757 5762 5767
5619 5609 5600 5592 5585 5579 5574 5571 5569 5568 5568 5569 5571 5574 5577 5581 5585 5589 5594 5600 5607 5613 5619 5626 5633 5639 5647 5654 5662 5670 5678 5685 5693 5701 5709 5717 5724 5730 5736 5742 5747 5752 5757
5607 5597 5588 5579 5572 5565 5560 5557 5554 5553 5554 5555 5557 5560 5563 5567 5571 5575 5580 5586 5592 5599 5605 5612 5618 5625 5631 5639 5646 5654 5662 5671 5679 5687 5697 5704 5711 5717 5724 5731 5736 5742 5748
5597 5587 5578 5569 5561 5555 5550 5545 5543 5541 5542 5543 5546 5548 5552 5555 5559 5564 5569 5575 5581 5587 5593 5600 5606 5612 5618 5625 5633 5640 5648 5655 5663 5672 5681 5690 5698 5706 5713 5720 5726 5733 5738
5588 5578 5569 5560 5552 5546 5541 5537 5534 5533 5533 5534 5536 5539 5542 5546 5550 5555 5560 5566 5572 5578 5583 5589 5595 5601 5606 5612 5619 5626 5634 5641 5649 5658 5667 5676 5685 5693 5701 5709 5716 5723 5729
5581 5571 5561 5553 5545 5539 5533 5530 5528 5527 5527 5528 5529 5532 5535 5539 5542 5547 5552 5558 5564 5569 5574 5580 5585 5590 5596 5601 5607 5614 5621 5628 5636 5644 5653 5662 5672 5681 5690 5698 5706 5713 5720
5574 5564 5556 5547 5539 5533 5528 5525 5523 5522 5522 5523 5524 5527 5529 5533 5536 5541 5546 5552 5557 5562 5567 5572 5576 5582 5587 5592 5597 5603 5609 5616 5624 5632 5641 5650 5660 5669 5679 5687 5695 5703 5710
5570 5560 5551 5543 5536 5530 5526 5522 5520 5519 5518 5519 5521 5523 5525 5529 5532 5536 5541 5546 5550 5555 5560 5564 5569 5573 5578 5583 5588 5593 5599 5606 5614 5622 5630 5639 5648 5658 5667 5676 5685 5693 5700
5567 5557 5549 5541 5535 5529 5525 5521 5519 5518 5517 5517 5519 5521 5523 5526 5529 5532 5536 5541 5545 5549 5554 5558 5561 5565 5570 5574 5579 5583 5589 5596 5603 5611 5620 5628 5637 5647 5657 5666 5675 5684 5692
5567 5558 5549 5542 5535 5530 5526 5523 5520 5519 5518 5518 5519 5520 5522 5525 5528 5530 5533 5537 5540 5544 5547 5551 5554 5558 5562 5566 5570 5574 5580 5586 5594 5602 5610 5619 5628 5638 5648 5657 5666 5675 5684
5569 5559 5551 5544 5538 5533 5529 5525 5523 5521 5520 5520 5521 5522 5523 5525 5527 5529 5532 5534 5537 5539 5542 5545 5548 5551 5555 5558 5562 5567 5572 5579 5586 5594 5603 5612 5621 5630 5640 5649 5659 5667 5676
5571 5562 5554 5547 5542 5537 5533 5529 5527 5525 5524 5523 5523 5524 5525 5526 5527 5529 5530 5532 5534 5536 5538 5540 5542 5545 5548 5551 5555 5560 5565 5572 5580 5588 5597 5606 5615 5624 5633 5643 5652 5660 5668
5574 5566 5558 5552 5546 5542 5538 5534 5532 5530 5528 5527 5527 5527 5527 5528 5528 5529 5530 5531 5533 5533 5535 5536 5538 5540 5543 5546 5550 5555 5560 5568 5576 5584 5593 5601 5611 5620 5629 5637 5646 5654 5662
5579 5571 5563 5557 5551 5547 5543 5540 5537 5534 5533 5532 5531 5530 5530 5530 5530 5531 5531 5532 5532 5533 5533 5534 5536 5538 5540 5543 5547 5552 5558 5565 5573 5582 5590 5599 5607 5616 5625 5633 5641 5649 5656
5584 5576 5569 5563 5557 5553 5549 5545 5542 5540 5538 5536 5535 5535 5534 5533 5533 5533 5533 5533 5533 5533 5533 5534 5536 5538 5540 5543 5547 5551 5557 5565 5572 5581 5589 5597 5605 5614 5621 5629 5637 5644 5651
5589 5582 5575 5569 5564 5559 5555 5551 5548 5546 5544 5542 5541 5539 5539 5538 5537 5536 5535 5535 5535 5535 5535 5536 5538 5539 5541 5544 5548 5553 5559 5566 5573 5581 5589 5597 5604 5612 5619 5627 5633 5640 5647
5594 5587 5581 5575 5570 5565 5561 5558 5555 5552 5550 5548 5546 5545 5543 5542 5541 5540 5539 5539 5538 5538 5538 5539 5540 5542 5544 5548 5552 5557 5563 5569 5575 5582 5590 5597 5604 5611 5618 5625 5632 5638 5644
5599 5593 5587 5581 5576 5572 5568 5564 5561 5559 5556 5554 5552 5550 5549 5547 5546 5545 5544 5544 5543 5543 5544 5544 5545 5547 5549 5552 5556 5561 5566 5572 5578 5585 5591 5598 5605 5611 5618 5624 5630 5636 5642
5605 5599 5593 5588 5583 5579 5575 5571 5568 5565 5563 5560 5558 5556 5555 5553 5552 5551 5550 5550 5549 5550 5550 5551 5552 5553 5556 5559 5562 5566 5571 5576 5582 5588 5594 5600 5607 5613 5619 5624 5629 5634 5639
5610 5604 5599 5594 5590 5585 5582 5578 5575 5572 5569 5567 5564 5562 5561 5559 5558 5557 5556 5556 5556 5556 5557 5558 5559 5561 5563 5566 5570 5573 5577 5582 5588 5593 5598 5603 5609 5614 5619 5624 5629 5633 5637
5614 5609 5605 5600 5596 5592 5588 5585 5582 5579 5576 5573 5571 5569 5568 5566 5565 5564 5563 5563 5563 5564 5565 5566 5567 5569 5571 5574 5577 5580 5584 5589 5593 5598 5602 5607 5611 5616 5620 5624 5628 5632 5635